Regional Weather Roundup
Issued by NWS

Home | Current Version | Previous Version | Text Only | Print | Product List | Glossary Off
Versions: 1 2 3 4 5 6 7 8 9 10 11 12 13 14 15 16 17 18 19 20 21 22 23 24 25 26 27 28 29 30 31 32 33 34 35 36 37 38 39 40 41 42 43 44 45 46 47 48 49 50

000
ASUS43 KLSX 210610
RWRMO

WEATHER SUMMARY FOR MISSOURI
NATIONAL WEATHER SERVICE SPRINGFIELD MO
1200 AM CST TUE FEB 21 2017

NOTE: "FAIR" INDICATES FEW OR NO CLOUDS BELOW 12,000 FEET WITH NO
       SIGNIFICANT WEATHER AND/OR OBSTRUCTIONS TO VISIBILITY.
       CURRENT SKY AND/OR WEATHER CONDITIONS ARE NOT AVAILABLE FOR
       CHILLICOTHE AND FARMINGTON.

MOZ001>031-035>038-043-044-053-054-210700-
...NORTHERN AND WESTERN MISSOURI...

CITY           SKY/WX    TMP DP  RH WIND       PRES   REMARKS
KANSAS CTY INT CLOUDY    56  52  86 NW5       29.91F
6HR MIN TEMP:  56; 6HR MAX TEMP:  62;

KANSAS C DTWN  CLOUDY    60  52  74 CALM      29.91S
6HR MIN TEMP:  59; 6HR MAX TEMP:  66;

LEE`S SUMMIT   PTCLDY    58  52  80 W5        29.92S
6HR MIN TEMP:  58; 6HR MAX TEMP:  63;

ST JOSEPH      CLOUDY    54  49  83 N12       29.92S
6HR MIN TEMP:  54; 6HR MAX TEMP:  62;

CHILLICOTHE      N/A     59  52  77 CALM      29.92S
6HR MIN TEMP:  55; 6HR MAX TEMP:  64;

KIRKSVILLE     CLOUDY    59  55  87 W5        29.92R
6HR MIN TEMP:  59; 6HR MAX TEMP:  63;


$$
MOZ066>068-077>081-088>096-101>105-210700-
...SOUTHWEST MISSOURI...

CITY           SKY/WX    TMP DP  RH WIND       PRES   REMARKS
SPRINGFIELD    LGT RAIN  54  53  97 CALM      29.91F
6HR MIN TEMP:  54; 6HR MAX TEMP:  63; 6HR PCP:  0.01;

JOPLIN         CLOUDY    57  54  89 CALM      29.92F
6HR MIN TEMP:  56; 6HR MAX TEMP:  62;

BRANSON        LGT RAIN  55  55 100 CALM      29.96R

$$
MOZ032>034-039>042-045>050-055>058-069>072-210700-
...CENTRAL MISSOURI...

CITY           SKY/WX    TMP DP  RH WIND       PRES   REMARKS
COLUMBIA       LGT RAIN  59  58  96 S3        29.94S
6HR MIN TEMP:  59; 6HR MAX TEMP:  64; 6HR PCP:  0.04;

JEFFERSON CITY FOG       58  58 100 CALM      29.93F VSB 3/4
6HR MIN TEMP:  58; 6HR MAX TEMP:  64; 6HR PCP:  0.18;

ROLLA          CLOUDY    57  57 100 SE5       29.93R FOG
6HR MIN TEMP:  57; 6HR MAX TEMP:  70; 6HR PCP:  0.36;

SEDALIA        CLOUDY    60  55  83 SW5       29.94S
6HR MIN TEMP:  57; 6HR MAX TEMP:  67; 6HR PCP: TRACE;

WHITEMAN AFB   PTCLDY    56  56 100 CALM      29.91R
WARRENSBURG    CLOUDY    55  52  88 SE5       29.92S
OSAGE BEACH    LGT RAIN  57  56  96 CALM      29.93F

$$
MOZ051-052-059>065-210700-
...EAST CENTRAL MISSOURI...

CITY           SKY/WX    TMP DP  RH WIND       PRES   REMARKS
ST LOUIS INTL  LGT RAIN  66  55  67 SE6       29.92F
6HR MIN TEMP:  66; 6HR MAX TEMP:  71; 6HR PCP: TRACE;

SPIRIT OF STL  LGT RAIN  62  57  83 W7        29.92R
6HR MIN TEMP:  62; 6HR MAX TEMP:  73; 6HR PCP: TRACE;

ST CHARLES     CLOUDY    61  56  83 CALM      29.92S
6HR MIN TEMP:  61; 6HR MAX TEMP:  70; 6HR PCP: TRACE;


$$
MOZ072>076-082>087-097>100-106>115-210700-
...SOUTH CENTRAL AND SOUTHEAST MISSOURI...

CITY           SKY/WX    TMP DP  RH WIND       PRES   REMARKS
CAPE GIRARDEAU CLOUDY    62  50  64 SE9       29.93S
6HR MIN TEMP:  61; 6HR MAX TEMP:  65;

FARMINGTON     CLOUDY    64  53  67 S8        29.94R
6HR MIN TEMP:  63; 6HR MAX TEMP:  66;

POPLAR BLUFF   CLOUDY    60  55  83 CALM      29.92R
6HR MIN TEMP:  59; 6HR MAX TEMP:  68;

WEST PLAINS    HVY RAIN  58  56  93 NE3       29.98R FOG
6HR MIN TEMP:  59; 6HR MAX TEMP:  71; 6HR PCP:  1.26;


$$




USA.gov is the U.S. government's official web portal to all federal, state and local government web resources and services.